Regional Weather Roundup
Issued by NWS

Home | Current Version | Previous Version | Text Only | Print | Product List | Glossary On
Versions: 1 2 3 4 5 6 7 8 9 10 11 12 13 14 15 16 17 18 19 20 21 22 23 24 25 26 27 28 29 30 31 32 33 34 35 36 37 38 39 40 41 42 43 44 45 46 47 48 49 50
000
ASUS44 KOUN 060210
RWROK

WEATHER ROUNDUP FOR OKLAHOMA
NATIONAL WEATHER SERVICE NORMAN OK
900 PM CDT THU MAY 05 2016

NOTE: "FAIR" INDICATES FEW OR NO CLOUDS BELOW 12,000 FEET WITH NO
      SIGNIFICANT WEATHER AND/OR OBSTRUCTIONS TO VISIBILITY.

OKZ001>007-009>012-014-015-017-060300-
NORTHWEST OKLAHOMA AND THE PANHANDLE

CITY           SKY/WX    TMP DP  RH WIND       PRES   REMARKS
GAGE           CLEAR     68  48  48 SE9       30.01R
GUYMON         CLEAR     70  48  45 SE10      29.98R
ENID/WOODRING  PTCLDY    66  52  59 E5        30.01R
$$

OKZ016-021>023-033>039-044-045-060300-
SOUTHWEST OKLAHOMA

CITY           SKY/WX    TMP DP  RH WIND       PRES   REMARKS
LAWTON/REGL    CLEAR     67  55  65 NE3       30.02R
LAWTON/FT SILL CLEAR     72  51  48 SE3       30.01R
FREDERICK      CLEAR     68  53  58 E8        29.99S
CLINTON        CLEAR     70  49  47 SE8       30.05R
HOBART         CLEAR     67  54  63 SE9       30.03S
ALTUS AFB      CLEAR     67  50  55 E10       30.01S
$$

OKZ018>020-024>031-060300-
CENTRAL OKLAHOMA

CITY           SKY/WX    TMP DP  RH WIND       PRES   REMARKS
OKLAHOMA CITY  PTCLDY    72  42  34 E5        30.03R
OKC/WILEY POST CLEAR     72  44  36 E5        30.03R
OKC/TINKER AFB CLEAR     70  44  39 E5        30.03R
STILLWATER     CLEAR     63  50  62 CALM      30.02R
GUTHRIE        CLEAR     64  49  57 E5        30.02R
$$

OKZ008-013-054>072-060300-
NORTHEAST OKLAHOMA

CITY           SKY/WX    TMP DP  RH WIND       PRES   REMARKS
TULSA          PTCLDY    69  47  45 E3        29.99R
TULSA/JONES    CLEAR     62  49  62 CALM      30.01R
PONCA CITY     CLEAR     67  45  45 CALM      30.01R
BARTLESVILLE   CLEAR     57  48  72 CALM      30.02R
MUSKOGEE       CLEAR     67  46  47 CALM      30.02R
$$

OKZ032-040>043-046>053-073>077-060300-
SOUTH CENTRAL/SOUTHEAST OKLAHOMA

CITY           SKY/WX    TMP DP  RH WIND       PRES   REMARKS
ARDMORE/DWNTWN CLEAR     61  50  67 CALM      30.02R
MCALESTER      CLEAR     59  51  75 CALM      30.02R
$$





USA.gov is the U.S. government's official web portal to all federal, state and local government web resources and services.